Weather History for Morgantown, WV

Change the Weather History Date:

Tuesday, October 25, 2011

  Actual Average Record
Temperature  
Mean Temperature 51 °F 52 °F  
Max Temperature 63 °F 62 °F 85 °F (2012)
Min Temperature 38 °F 41 °F 26 °F (1962)
Degree Days  
Heating Degree Days 14 14  
Month to date heating degree days 226 258  
Since 1 July heating degree days 294 355  
Cooling Degree Days 0 0  
Month to date cooling degree days 3 10  
Year to date cooling degree days 1006 811  
Moisture  
Dew Point 39 °F    
Average Humidity 50    
Maximum Humidity 63    
Minimum Humidity 36    
Precipitation  
Precipitation 0.01 in 0.08 in 1.35 in (1980)
Month to date precipitation 3.04 2.22  
Year to date precipitation 47.97 34.90  
Sea Level Pressure  
Sea Level Pressure 30.19 in    
Wind  
Wind Speed 3 mph (SSW)    
Max Wind Speed 9 mph    
Max Gust Speed 15 mph    
Visibility 5 miles    
Events Fog    
T = Trace of Precipitation, MM = Missing Value Source: NWS Daily Summary

Daily Weather History Graph

Daily Weather History Graph

Search for Another Location

Airport:

Trip Planner

Search our weather history database for the weather conditions in past years. The results will help you decide how hot, cold, wet, or windy it might be!

Date:

Astronomy

Oct. 25, 2011 Rise Set
Actual Time 7:40 AM EDT 6:26 PM EDT
Civil Twilight 7:12 AM EDT 6:54 PM EDT
Nautical Twilight 6:40 AM EDT 7:25 PM EDT
Astronomical Twilight 6:09 AM EDT 7:57 PM EDT
Moon 6:10 AM EDT 5:27 PM EDT
Length of Visible Light 11h 41m
Length of Day
10h 46m
Waning Crescent, 2% of the Moon is Illuminated
Oct 25
Waning Crescent
Oct 26
New
Nov 2
First Quarter
Nov 10
Full
Nov 18
Last Quarter

Hourly Weather History & Observations

Time (EDT) Temp. Windchill Dew Point Humidity Pressure Visibility Wind Dir Wind Speed Gust Speed Precip Events Conditions
12:53 AM 46.0 °F 44.8 °F 44.1 °F 93% 30.18 in 0.2 mi South 3.5 mph - N/A Fog Fog
1:22 AM 44.6 °F 43.1 °F 44.6 °F 100% 30.17 in 0.2 mi South 3.5 mph - N/A Fog Fog
1:53 AM 46.0 °F - 45.0 °F 96% 30.17 in 0.2 mi Calm Calm - N/A Fog Fog
2:53 AM 45.0 °F - 44.1 °F 97% 30.19 in 0.2 mi Calm Calm - N/A Fog Fog
3:53 AM 43.0 °F - 42.1 °F 97% 30.20 in 0.2 mi Calm Calm - 0.01 in Fog Fog
4:53 AM 42.1 °F - 41.0 °F 96% 30.22 in 0.2 mi Calm Calm - N/A Fog Fog
5:32 AM 39.2 °F - 39.2 °F 100% 30.21 in 0.2 mi Calm Calm - N/A Fog Fog
5:46 AM 41.0 °F - 39.2 °F 93% 30.21 in 0.5 mi Calm Calm - N/A Fog Fog
5:53 AM 41.0 °F - 39.0 °F 93% 30.23 in 1.2 mi Calm Calm - N/A   Partly Cloudy
6:06 AM 39.2 °F - 39.2 °F 100% 30.22 in 0.8 mi Calm Calm - N/A   Mist
6:19 AM 39.2 °F - 39.2 °F 100% 30.22 in 0.2 mi Calm Calm - N/A Fog Fog
6:53 AM 39.0 °F - 37.9 °F 96% 30.25 in 7.0 mi Calm Calm - N/A   Clear
7:07 AM 39.2 °F 37.0 °F 37.4 °F 93% 30.23 in 1.8 mi SSW 3.5 mph - N/A   Scattered Clouds
7:13 AM 39.2 °F - 37.4 °F 93% 30.24 in 0.8 mi Calm Calm - N/A   Mist
7:28 AM 39.2 °F 37.0 °F 37.4 °F 93% 30.24 in 0.5 mi SSW 3.5 mph - N/A Fog Fog
7:38 AM 39.2 °F 37.0 °F 37.4 °F 93% 30.25 in 1.2 mi SSW 3.5 mph - N/A   Scattered Clouds
7:50 AM 39.2 °F 37.0 °F 39.2 °F 100% 30.25 in 2.5 mi SSW 3.5 mph - N/A   Partly Cloudy
7:53 AM 39.2 °F - 39.2 °F 100% 30.25 in 2.5 mi Calm Calm - N/A   Partly Cloudy
8:23 AM 41.0 °F - 39.2 °F 93% 30.25 in 3.0 mi Calm Calm - N/A   Clear
8:53 AM 42.1 °F 40.2 °F 41.0 °F 96% 30.27 in 5.0 mi South 3.5 mph - N/A   Clear
9:53 AM 46.9 °F - 43.0 °F 86% 30.27 in 10.0 mi SSW 4.6 mph - N/A   Clear
10:53 AM 52.0 °F - 44.1 °F 74% 30.27 in 10.0 mi Variable 3.5 mph - N/A   Clear
11:53 AM 55.0 °F - 43.0 °F 64% 30.26 in 10.0 mi Calm Calm - N/A   Clear
12:53 PM 59.0 °F - 36.0 °F 42% 30.23 in 10.0 mi Variable 4.6 mph - N/A   Clear
1:53 PM 62.1 °F - 35.1 °F 37% 30.19 in 10.0 mi SW 9.2 mph - N/A   Scattered Clouds
2:53 PM 62.6 °F - 37.4 °F 39% 30.17 in 10.0 mi WSW 10.4 mph - N/A   Mostly Cloudy
3:53 PM 62.1 °F - 35.1 °F 37% 30.16 in 10.0 mi South 5.8 mph - N/A   Clear
4:53 PM 62.1 °F - 35.1 °F 37% 30.14 in 10.0 mi Variable 6.9 mph - N/A   Clear
5:53 PM 61.0 °F - 35.1 °F 38% 30.11 in 10.0 mi Calm Calm - N/A   Clear
6:53 PM 55.0 °F - 37.0 °F 51% 30.11 in 10.0 mi Calm Calm - N/A   Clear
7:53 PM 51.1 °F - 39.0 °F 63% 30.09 in 10.0 mi South 3.5 mph - N/A   Clear
8:53 PM 53.6 °F - 37.4 °F 54% 30.05 in 10.0 mi SSW 3.5 mph - N/A   Clear
9:53 PM 53.1 °F - 36.0 °F 52% 30.05 in 10.0 mi South 5.8 mph - N/A   Clear
10:53 PM 55.0 °F - 35.1 °F 47% 30.03 in 10.0 mi SSW 4.6 mph - N/A   Clear
11:53 PM 57.9 °F - 33.1 °F 39% 30.03 in 10.0 mi Calm Calm - N/A   Clear